Theta_e
314 308 310 309 310 313 313 314 315 323 323 326 325 328 328 328 327 326 326 327 329 329 326 328 327 327 329 332 337 337 337 336 335 332 343 353 350 346 343 343 346 350 352 351
309 309 310 311 312 313 314 313 314 318 326 326 326 327 326 326 326 327 326 326 328 328 328 331 331 331 330 329 331 336 339 338 338 342 347 349 348 349 347 341 343 346 348 348
309 310 312 313 313 314 314 314 314 324 324 324 326 328 327 324 324 325 326 324 327 327 328 331 331 331 332 331 330 332 334 334 333 347 349 352 353 353 352 350 348 348 350 347
311 312 312 313 314 314 314 314 315 322 323 326 323 325 320 321 318 317 321 321 323 325 325 331 332 335 334 334 334 334 333 333 336 333 333 347 349 348 349 348 344 344 346 346
312 312 313 314 315 314 314 314 314 318 320 321 320 318 314 319 320 317 317 319 321 323 327 332 334 337 338 336 334 331 331 337 340 341 340 337 346 347 347 346 345 347 346 343
313 314 313 313 313 314 314 314 319 318 318 321 319 321 317 316 319 319 317 319 320 323 333 336 339 339 338 335 329 326 330 338 341 342 345 344 344 344 344 344 345 344 341 341
314 314 312 313 312 313 314 314 320 321 320 323 317 316 319 315 317 318 317 319 321 326 335 337 336 335 334 330 323 325 329 334 339 341 340 338 338 337 337 335 333 333 333 334
311 311 312 313 312 311 312 317 319 321 319 317 317 320 319 317 318 319 319 321 323 331 333 333 332 330 325 324 324 323 324 323 324 323 329 329 327 324 322 321 322 323 324 325
312 313 314 314 314 312 314 316 315 319 320 318 321 323 321 324 321 319 323 325 327 332 331 330 328 325 324 325 324 323 322 321 320 321 320 320 320 319 318 318 317 318 318 318
314 313 317 317 314 313 313 315 321 320 321 321 327 328 325 326 326 319 322 323 329 330 329 327 325 325 326 326 325 324 323 322 321 320 320 319 318 317 316 316 316 316 316 315
314 318 319 319 317 314 316 317 316 318 320 324 325 325 326 324 325 321 320 322 324 326 326 325 325 326 326 325 324 323 322 320 319 319 318 318 318 316 316 316 316 315 315 314
316 317 319 320 319 316 316 315 316 320 325 327 327 326 326 325 325 323 323 324 324 325 325 325 326 326 326 325 323 320 319 319 318 318 318 317 317 317 316 315 315 315 314 312
317 320 322 321 319 318 319 320 318 319 321 328 328 328 327 327 328 326 325 322 322 322 324 326 325 324 324 321 320 319 318 318 318 318 318 317 317 317 316 314 314 313 312 311
321 320 318 321 321 323 325 324 322 320 322 328 328 327 330 328 327 327 325 325 323 321 322 323 322 322 322 319 318 318 318 318 318 318 318 318 317 316 315 313 312 311 311 311
319 323 325 327 327 326 325 324 323 323 323 323 328 329 328 327 326 326 325 325 324 323 321 319 319 319 318 318 319 319 318 318 317 317 317 316 316 315 313 312 312 311 310 310
320 325 325 327 325 325 325 324 323 322 322 324 325 324 322 324 325 323 325 325 322 318 318 318 318 318 318 318 317 316 316 316 315 315 315 314 314 313 312 312 312 311 310 309
321 322 320 327 327 324 325 323 319 321 321 319 322 321 321 322 321 320 320 318 317 317 317 317 316 316 316 316 315 315 315 314 314 313 313 312 312 312 311 311 310 309 309 308
319 319 320 323 320 324 321 320 319 320 319 318 318 321 319 317 317 316 316 316 316 316 315 316 315 315 314 314 314 314 314 313 313 312 312 311 311 310 309 309 308 307 306 306
319 320 321 323 319 319 319 320 320 319 318 315 318 318 316 315 315 314 315 315 315 315 314 313 313 312 312 312 313 314 312 311 311 310 310 309 308 308 307 307 306 305 304 303
320 319 320 319 322 319 319 318 319 318 318 315 315 315 315 315 314 312 314 314 313 312 311 312 311 311 311 310 309 309 309 309 308 307 307 306 306 305 304 304 303 302 302 302
321 321 319 320 319 321 321 321 318 319 317 315 314 313 313 312 312 310 309 308 308 308 308 307 307 308 307 306 306 306 305 305 305 304 304 304 303 303 302 301 301 302 302 303
320 319 318 319 321 322 321 320 320 316 314 313 312 312 310 308 306 306 306 306 306 306 306 305 305 305 304 304 304 303 303 302 302 302 301 301 300 300 300 300 301 302 302 302
320 316 318 317 319 317 317 315 314 313 311 310 309 307 307 305 305 305 305 304 304 304 304 304 303 302 302 301 300 300 299 298 298 298 299 299 299 299 300 301 301 301 301 302
320 317 319 317 316 314 313 312 312 311 308 307 307 306 306 305 304 304 304 303 303 303 302 302 301 300 299 298 296 295 295 295 295 296 297 297 298 300 300 299 300 301 301 300
317 316 316 315 313 313 311 310 309 307 307 306 305 305 304 304 303 303 303 302 302 300 299 298 298 296 295 295 293 293 293 293 294 295 295 297 298 298 299 301 301 301 301 299
315 315 314 313 313 312 310 308 309 307 304 304 304 304 303 303 303 303 302 300 298 298 296 295 294 293 292 292 292 291 292 292 292 293 294 295 296 297 298 299 304 303 302 301
Wind_Speed
14 5 14 11 6 2 1 4 9 3 9 6 7 6 6 15 10 12 15 15 11 10 2 18 18 17 15 11 15 22 32 34 33 23 28 33 31 34 33 31 29 30 27 25
4 10 7 7 8 8 8 6 7 7 7 6 6 8 8 8 10 19 21 14 14 11 11 22 23 22 17 14 12 13 16 17 25 32 31 28 27 26 22 17 15 18 27 25
6 4 10 9 9 11 10 8 6 4 7 4 7 5 7 6 14 20 27 21 17 15 21 19 19 20 23 22 18 14 12 13 13 20 27 28 28 27 24 20 20 22 27 24
5 9 15 13 13 12 13 6 11 8 4 5 7 5 6 7 11 9 26 24 19 20 16 22 20 19 19 19 18 15 12 14 17 18 22 19 22 22 16 20 20 21 18 22
9 12 13 13 15 14 9 8 9 9 7 4 2 3 7 10 13 12 17 27 25 19 14 24 19 19 15 10 4 2 1 4 5 6 10 16 13 13 14 19 22 17 14 16
9 7 9 14 11 13 14 4 4 2 5 6 9 8 6 6 18 16 11 28 27 18 24 24 22 20 15 11 8 5 5 4 2 4 5 7 10 12 14 16 16 13 16 17
10 16 9 7 7 5 4 6 1 1 3 5 11 5 12 8 13 15 14 23 26 19 30 29 24 17 13 8 8 8 8 5 3 3 3 4 4 5 8 9 9 9 7 7
7 6 14 10 10 10 7 8 5 5 2 7 2 7 13 10 22 18 23 22 22 33 33 26 19 15 9 5 6 5 5 6 6 6 6 5 6 7 9 10 9 8 6 5
9 8 5 13 13 13 5 5 9 6 1 2 3 5 8 13 15 16 23 29 33 38 30 23 18 12 9 8 5 2 2 3 4 6 7 8 9 11 13 14 15 14 14 13
4 4 4 5 10 6 10 7 5 2 3 4 1 4 5 10 17 8 18 28 36 34 30 24 18 14 13 11 9 5 3 2 4 7 10 12 13 15 18 18 19 21 21 21
3 4 6 4 2 8 3 4 6 4 4 5 3 5 4 7 13 5 6 29 35 31 29 25 20 17 13 12 10 8 4 2 1 3 7 13 19 24 26 26 27 28 29 28
7 4 4 5 5 4 6 8 7 5 3 2 2 5 4 6 10 11 8 24 27 28 27 26 22 17 16 14 14 10 8 7 7 6 7 11 16 20 22 29 30 29 30 29
5 1 3 8 6 6 6 3 5 5 4 4 4 3 1 5 7 15 17 11 26 23 20 23 18 17 19 18 15 14 14 10 7 7 11 15 19 21 24 27 29 31 31 30
11 4 8 7 4 2 4 7 5 5 4 6 6 9 9 14 9 8 13 14 4 16 21 24 22 23 24 17 14 12 7 6 9 12 15 18 19 24 27 29 31 34 35 34
6 4 3 9 9 3 2 5 5 3 7 4 7 12 10 9 9 16 4 8 25 6 11 19 18 18 15 12 8 7 9 8 9 12 16 20 23 28 31 33 37 37 36 36
3 3 4 6 7 7 3 3 4 4 8 7 8 4 4 10 22 19 10 10 21 12 14 17 16 13 10 6 3 3 6 8 13 18 22 26 29 29 33 35 37 38 39 39
4 6 4 2 1 4 4 4 3 4 2 8 5 8 11 8 11 16 18 20 25 25 19 15 11 8 5 6 8 12 15 17 19 21 20 22 26 28 30 32 35 38 40 42
6 5 3 3 2 5 5 3 6 14 13 10 18 18 19 18 24 24 24 25 23 19 15 11 7 8 8 9 11 12 11 12 16 20 21 22 24 27 29 32 35 39 42 46
10 5 4 4 3 1 2 3 6 16 9 9 18 19 27 27 32 24 21 19 16 13 11 10 8 8 9 11 9 9 10 11 15 19 21 23 26 29 33 37 41 45 49 52
8 8 6 3 5 4 5 5 20 12 6 7 17 11 8 6 9 1 12 11 11 11 10 6 5 4 5 6 9 13 15 17 19 22 25 27 30 34 39 43 47 50 49 45
4 3 6 4 3 2 1 5 2 6 6 10 24 20 20 13 13 18 19 18 13 11 8 7 9 11 11 12 15 17 19 21 25 28 31 34 38 41 44 46 45 42 37 34
4 5 3 4 3 3 3 6 7 13 19 26 27 28 31 28 24 20 15 12 10 9 10 12 14 16 19 22 24 25 28 31 34 37 40 42 42 42 40 37 35 30 26 25
3 5 5 3 3 3 21 29 35 34 31 28 29 25 25 24 21 16 15 13 12 12 14 16 19 22 24 27 30 33 34 36 37 38 38 36 34 31 28 27 24 22 20 22
4 3 6 6 6 17 28 33 33 31 31 26 22 20 17 20 14 13 11 13 15 18 21 24 26 28 29 30 30 30 31 32 32 32 29 27 26 24 21 18 17 19 20 21
1 5 8 13 14 24 21 31 32 30 24 22 19 16 15 10 13 11 12 15 17 20 22 24 25 26 27 28 30 32 29 28 27 25 23 22 21 20 19 16 17 19 18 18
4 11 5 4 11 21 17 27 24 24 22 18 17 17 14 9 10 10 13 15 17 18 20 21 22 25 27 28 27 25 23 23 23 22 21 20 20 18 19 20 18 15 18 19
Wind_Direction
186 179 206 205 190 272 291 183 211 236 199 156 194 186 195 245 260 262 276 283 243 254 207 128 129 131 140 170 208 206 211 213 216 245 233 225 230 236 241 246 247 246 248 252
123 223 205 199 173 208 235 229 237 219 230 152 175 196 195 232 255 269 268 267 239 227 167 140 133 130 137 134 143 189 205 218 231 242 238 239 244 242 245 257 260 249 245 250
183 197 199 205 208 213 229 224 221 199 207 220 151 258 229 239 243 252 255 268 257 246 243 171 150 144 138 142 147 160 180 210 229 228 230 240 246 246 254 262 263 264 256 252
229 236 196 214 221 203 232 185 232 220 174 213 165 242 246 220 240 208 234 235 244 251 244 175 157 142 141 137 148 159 184 204 219 228 228 227 230 237 238 242 250 259 267 255
218 195 204 210 213 209 227 213 222 224 224 114 263 133 255 234 249 238 231 229 231 233 212 164 160 145 133 142 140 70 297 241 248 252 228 226 234 240 253 256 261 263 267 271
229 216 192 214 226 211 222 199 58 278 226 219 213 185 250 196 221 238 224 225 221 221 159 156 146 135 125 109 80 63 49 51 337 268 266 261 264 271 283 278 273 274 270 271
227 243 238 192 206 230 193 116 227 242 142 208 224 171 233 221 223 217 208 216 209 175 153 141 141 137 127 97 56 70 81 92 60 28 29 32 24 15 20 32 33 31 13 350
192 253 223 205 194 183 192 148 151 152 206 221 285 205 245 246 243 219 202 203 185 168 155 150 147 135 111 84 86 95 84 83 83 70 62 53 53 43 39 28 22 22 15 359
171 226 192 210 219 163 161 152 179 118 6 68 263 298 323 4 351 149 145 153 157 159 156 153 148 140 128 116 109 124 107 99 61 29 15 6 6 358 357 353 348 348 340 331
268 206 227 231 184 206 156 170 100 15 156 216 279 279 248 353 344 240 154 146 151 155 155 156 154 145 142 144 160 175 144 63 20 344 331 331 334 338 336 333 336 335 331 328
162 92 290 67 145 180 145 126 66 103 146 184 161 262 207 351 332 281 181 150 153 160 158 160 160 156 155 160 168 162 156 159 209 315 321 324 328 332 330 327 325 323 323 323
178 166 194 211 309 236 153 175 136 125 174 103 171 265 307 359 317 66 112 150 152 158 163 165 159 159 168 173 175 175 191 210 215 242 285 303 313 318 318 322 318 317 319 319
178 305 81 335 3 356 96 134 130 119 94 184 107 285 324 255 301 26 37 98 115 119 146 157 162 172 176 181 177 176 176 182 204 256 279 292 302 306 311 320 318 315 314 312
114 127 155 184 181 231 32 27 61 101 100 172 172 178 212 208 185 31 46 3 66 118 140 155 162 172 177 175 169 175 199 244 267 273 284 290 296 307 315 316 317 314 310 310
105 104 94 138 103 41 87 57 8 110 162 136 182 179 186 165 138 119 169 285 324 328 153 153 139 147 156 167 180 220 245 254 277 296 306 312 314 313 313 311 313 314 312 308
30 122 74 30 63 44 305 36 38 120 108 101 144 90 137 146 137 116 131 189 264 104 110 108 118 128 136 153 192 269 298 310 316 316 314 312 310 306 307 308 309 310 310 305
81 126 92 59 29 54 302 211 50 314 85 140 164 157 130 114 110 132 173 143 102 100 97 96 86 74 46 9 342 324 319 316 315 315 311 302 300 301 302 303 304 304 304 304
117 90 80 138 75 143 246 150 78 73 36 76 91 117 115 112 114 110 98 95 91 89 83 73 44 5 343 332 323 316 300 297 298 299 296 294 295 298 299 301 301 302 303 305
129 101 84 130 122 226 81 33 129 108 35 15 105 116 121 114 90 73 78 76 70 53 37 23 359 350 333 322 318 298 290 293 294 294 298 299 300 301 301 301 302 304 306 306
64 108 103 113 145 184 227 89 113 94 58 20 89 94 110 147 84 202 74 72 74 69 55 34 18 346 321 331 315 304 301 301 300 300 301 301 301 302 303 304 306 306 307 307
71 34 120 109 102 294 221 312 98 92 181 120 103 102 93 89 97 96 95 84 80 72 49 12 344 341 337 326 319 315 312 307 302 300 300 302 302 304 304 305 306 306 307 308
123 112 126 114 116 216 188 25 96 138 125 106 101 101 95 96 91 89 83 72 53 30 6 357 345 336 328 321 317 316 313 308 306 306 306 306 307 307 307 307 307 310 313 317
47 172 138 144 189 5 99 111 120 116 108 103 101 99 100 92 88 79 70 53 32 8 349 337 332 328 323 321 318 316 314 310 309 308 307 307 307 309 312 312 314 317 323 323
111 168 121 82 40 90 101 104 110 108 102 99 98 94 90 89 76 65 40 20 2 348 340 332 326 322 322 320 320 319 315 312 313 312 313 314 315 319 321 320 323 327 329 329
164 96 103 98 107 90 82 106 111 103 103 99 93 88 86 79 65 36 18 0 348 340 333 330 330 330 329 328 326 324 322 319 318 319 321 323 324 325 325 329 333 327 332 330
2 136 129 169 166 115 120 114 113 106 106 107 108 95 78 56 49 13 4 352 347 346 341 341 344 338 331 328 328 329 328 326 326 326 330 329 329 334 333 329 323 324 329 328